Flag for Germany Weather past 2 weeks in Neuruppin, Brandenburg, Germany

Now
40 °F

Overcast.


Feels Like: 38 °F
Forecast: 32 / 44 °F
Wind: 3 mph from Southwest

Location: Neuruppin

Current Time: Mar 4, 2015 at 12:41:47 PM

Latest Report: Mar 4, 2015 at 12:00 PM


Visibility: 6 mi

Pressure: 30.11 "Hg

Humidity: 80%

Dew point: 34 °F

Location of NeuruppinLocation

Historic Weather in Neuruppin — Graph

°F

Neuruppin temperature yesterday

Maximum temperature yesterday: 45 °F (at 3:00 PM)
Minimum temperature yesterday: 33 °F (at 6:00 AM)
Average temperature yesterday: 38 °F

Past Weeks' High & Low Weather Summary

 TemperatureHumidityPressure
High49 °F (Feb 21, 11:00 AM)100% (Feb 18, 3:00 AM)30.73 "Hg (Feb 18, 3:00 AM)
Low26 °F (Feb 26, 5:00 AM)50% (Feb 26, 2:00 PM)29.35 "Hg (Feb 21, 11:00 AM)
Average37 °F83%29.92 "Hg
* Reported Feb 17 11:00 AM — Mar 4 11:00 AM, Neuruppin, Weather by CustomWeather, © 2015

Note: Actual official high and low records may vary slightly from our data, if they occured in-between our weather recording intervals... More about our weather records

Advertising

Neuruppin weather history for previous 24 hours

 ConditionsComfort  
Time TempWeatherWind HumidityBarometerVisibility
11:00 AM
Wed, Mar 4
40 °FOvercast.6 mph76%30.09 "Hg6 mi
9:00 AM36 °FSunny.5 mph87%30.07 "Hg6 mi
8:00 AM33 °FOvercast.2 mph94%30.06 "Hg6 mi
7:00 AM33 °FPartly sunny.3 mph93%30.03 "Hg6 mi
6:00 AM33 °FClear.3 mph92%30.01 "Hg6 mi
5:00 AM35 °FPassing clouds.5 mph89%29.99 "Hg6 mi
3:00 AM36 °FOvercast.5 mph87%29.95 "Hg6 mi
2:00 AM36 °FPassing clouds.5 mph83%29.95 "Hg6 mi
1:00 AM37 °FPassing clouds.6 mph84%29.93 "Hg6 mi
12:00 AM39 °FOvercast.6 mph88%29.90 "Hg6 mi
11:00 PM
Tue, Mar 3
39 °FOvercast.3 mph94%29.89 "Hg6 mi
9:00 PM38 °FLow clouds.5 mph95%29.90 "Hg6 mi
8:00 PM38 °FOvercast.5 mph96%29.91 "Hg6 mi
7:00 PM38 °FLow clouds.7 mph90%29.93 "Hg6 mi
6:00 PM40 °FOvercast.3 mph79%29.94 "Hg6 mi
5:00 PM43 °FOvercast.3 mph66%29.95 "Hg6 mi
3:00 PM45 °FScattered clouds.6 mph59%29.98 "Hg6 mi
2:00 PM44 °FOvercast.6 mph64%29.98 "Hg6 mi
1:00 PM42 °FOvercast.6 mph71%29.99 "Hg7 mi
12:00 PM42 °FOvercast.6 mph71%29.99 "Hg6 mi
Weather by CustomWeather, © 2015

See weather overviewHow to use our weather pages